This demonstration page uses our WeatherBlox Daily Observations layout. Learn more.

Left ArrowRight Arrow

34.02893, -84.19858

Hourly Observations for August 20, 2015

Temp ( °F °C ) Dew Point ( °F °C ) Humidity (%) Winds ( mph kmh ) Pressure ( in mb ) Visibility ( mi km ) Precip ( " mm )
12:53 am 00:53 Mostly Cloudy 74 23.3 73 22.8 97 97 Calm 29.96 1015 10 16 0.00 0.00
1:04 am 01:04 Mostly Cloudy 73 23 73 23 100 100 Calm 30.00 1016 10 16 0.00 0.00
1:53 am 01:53 Cloudy 74 23.3 74 23.3 100 100 SSE 5 7 29.95 1014 8 13 0.00 0.00
2:14 am 02:14 Cloudy 73 23 73 23 100 100 Calm 29.97 1015 9 14 0.00 0.00
2:53 am 02:53 Mostly Cloudy 74 23.3 74 23.3 100 100 SSW 5 7 29.93 1014 10 16 0.00 0.00
3:37 am 03:37 Cloudy 74 23.3 74 23.3 100 100 SW 7 11 29.97 1015 10 16 0.00 0.00
3:53 am 03:53 Cloudy 74 23.3 74 23.3 100 100 SW 7 11 29.93 1014 10 16 0.00 0.00
4:53 am 04:53 Cloudy 74 23.3 73 22.8 97 97 W 8 13 29.95 1014 10 16 0.00 0.00
5:53 am 05:53 Mostly Cloudy 73 22.8 73 22.8 100 100 SW 5 7 29.94 1014 8 13 0.00 0.00
6:27 am 06:27 Cloudy 73 22.8 73 22.8 100 100 WSW 6 9 29.97 1015 8 13 0.00 0.00
6:53 am 06:53 Cloudy 73 22.8 73 22.8 100 100 W 5 7 29.96 1015 8 13 0.00 0.00
7:24 am 07:24 Mostly Cloudy 73 23 72 22 94 94 WSW 6 9 29.97 1015 7 11 0.00 0.00
7:53 am 07:53 Mostly Sunny 73 22.8 73 22.8 100 100 W 5 7 29.97 1015 7 11 0.00 0.00
8:19 am 08:19 Mostly Cloudy 74 23.3 73 22.8 97 97 W 5 7 30.00 1016 8 13 0.00 0.00
8:53 am 08:53 Mostly Cloudy 75 23.9 73 22.8 94 94 W 7 11 29.99 1016 10 16 0.00 0.00
9:53 am 09:53 Mostly Cloudy 77 25 72 22.2 85 85 W 5 7 29.99 1016 10 16 0.00 0.00
10:00 am 10:00 Mostly Cloudy 79 26 72 22 79 79 VRB 6 9 29.97 1015 10 16 0.00 0.00
10:53 am 10:53 Mostly Cloudy 80 26.7 72 22.2 76 76 VRB 5 7 30.00 1016 10 16 0.00 0.00
10:58 am 10:58 Mostly Cloudy 81 27 72 22 74 74 W 8 13 30.00 1016 10 16 0.00 0.00
11:53 am 11:53 Mostly Cloudy 81 27.2 71 21.7 72 72 W 6 9 30.00 1016 10 16 0.00 0.00
12:53 pm 12:53 Cloudy 84 28.9 72 22.2 67 67 NNW 5 7 29.98 1015 10 16 0.00 0.00
1:53 pm 13:53 Mostly Cloudy 86 30 71 21.7 61 61 W 7 11 29.97 1015 10 16 0.00 0.00
2:00 pm 14:00 Mostly Cloudy 84 29 70 21 62 62 VRB 7 11 29.97 1015 10 16 0.00 0.00
2:53 pm 14:53 Partly Cloudy 85 29.4 71 21.7 63 63 SW 8 13 29.96 1015 10 16 0.00 0.00
3:53 pm 15:53 Mostly Sunny 87 30.6 72 22.2 61 61 SW 9 15 29.93 1014 10 16 0.00 0.00
4:48 pm 16:48 Cloudy with Nearby Thunderstorms 79 26 73 23 84 84 W 5 7 29.94 1014 7 11 0.00 0.00
4:53 pm 16:53 Cloudy with Nearby Thunderstorms 79 26.1 73 22.8 82 82 WSW 10 17 29.96 1015 5 8 0.12 3.05
5:01 pm 17:01 Cloudy with Rain 77 25 75 23.9 94 94 WSW 13 20 29.97 1015 2 3 0.05 1.27
5:09 pm 17:09 Cloudy with Heavy Rain 75 23.9 74 23.3 96 96 SW 9 15 29.97 1015 1 1 0.18 4.57
5:15 pm 17:15 Cloudy with Nearby Thunderstorms 75 23.9 74 23.3 96 96 SSW 7 11 29.97 1015 1 2 0.21 5.33
5:21 pm 17:21 Mostly Cloudy with Nearby Thunderstorms 76 24.4 75 23.9 97 97 SSW 6 9 29.97 1015 3 5 0.21 5.33
5:37 pm 17:37 Mostly Sunny 78 25.6 75 23.9 90 90 Calm 29.94 1014 10 16 0.21 5.33
5:53 pm 17:53 Mostly Sunny 79 26.1 74 23.3 85 85 S 3 6 29.95 1014 10 16 0.21 5.33
6:53 pm 18:53 Mostly Sunny 80 26.7 75 23.9 85 85 Calm 29.94 1014 10 16 0.00 0.00
7:53 pm 19:53 Sunny 79 26.1 75 23.9 88 88 SSW 5 7 29.96 1015 10 16 0.00 0.00
8:53 pm 20:53 Partly Cloudy 78 25.6 75 23.9 90 90 W 5 7 29.97 1015 10 16 0.00 0.00
9:53 pm 21:53 Clear 76 24.4 75 23.9 97 97 Calm 30.00 1016 9 14 0.00 0.00
10:53 pm 22:53 Mostly Cloudy 76 24.4 74 23.3 94 94 SW 3 6 30.01 1016 10 16 0.00 0.00
11:53 pm 23:53 Clear 75 23.9 73 22.8 94 94 Calm 30.00 1016 10 16 0.00 0.00

Powered by AerisWeather